• In Hungary
  • List of Countries
  • For 7 days
  • Water Temperature
  • Satellite Maps
  • Weather Map
  • News
  • Weather Widgets
  • user-avatar
    Login

    Hourly Weather Asse

    Today, 20 September, Thursday

    Time Temperature Precipitation Wind Pressure Humidity
    00:00 +17°C° 0 mm 3 mps 759 mmHg 83%
    01:00 +17°C° 0 mm 3 mps 759 mmHg 85%
    02:00 +17°C° 0 mm 3 mps 759 mmHg 86%
    03:00 +16°C° 0 mm 3 mps 759 mmHg 88%
    04:00 +15°C° 0 mm 4 mps 759 mmHg 88%
    05:00 +15°C° 0 mm 4 mps 758 mmHg 89%
    06:00 +15°C° 0 mm 4 mps 758 mmHg 89%
    07:00 +17°C° 0 mm 5 mps 758 mmHg 83%
    08:00 +19°C° 0 mm 6 mps 758 mmHg 77%
    09:00 +21°C° 0 mm 6 mps 758 mmHg 71%
    10:00 +22°C° 0 mm 6 mps 758 mmHg 67%
    11:00 +23°C° 0 mm 6 mps 758 mmHg 63%
    12:00 +24°C° 0 mm 6 mps 758 mmHg 59%
    13:00 +24°C° 0 mm 6 mps 757 mmHg 58%
    14:00 +24°C° 0 mm 6 mps 757 mmHg 57%
    15:00 +26°C° 0 mm 6 mps 756 mmHg 56%
    16:00 +23°C° 0 mm 5 mps 756 mmHg 60%
    17:00 +22°C° 0 mm 4 mps 755 mmHg 64%
    18:00 +21°C° 0 mm 4 mps 755 mmHg 69%
    19:00 +21°C° 0 mm 4 mps 754 mmHg 66%
    20:00 +21°C° 0 mm 5 mps 754 mmHg 63%
    21:00 +21°C° 0 mm 6 mps 753 mmHg 60%
    22:00 +21°C° 0 mm 6 mps 753 mmHg 59%
    23:00 +21°C° 0 mm 6 mps 752 mmHg 59%

    Tomorrow, 21 September, Friday

    Time Temperature Precipitation Wind Pressure Humidity
    00:00 +21°C° 0 mm 7 mps 751 mmHg 59%
    01:00 +21°C° 0 mm 7 mps 751 mmHg 59%
    02:00 +20°C° 0 mm 8 mps 750 mmHg 60%
    03:00 +19°C° 0 mm 9 mps 749 mmHg 61%
    04:00 +18°C° 1 mm 9 mps 749 mmHg 67%
    05:00 +18°C° 1 mm 10 mps 749 mmHg 74%
    06:00 +17°C° 1 mm 10 mps 750 mmHg 81%
    07:00 +16°C° 0.2 mm 9 mps 751 mmHg 76%
    08:00 +15°C° 0.2 mm 9 mps 752 mmHg 70%
    09:00 +13°C° 0.2 mm 8 mps 753 mmHg 64%
    10:00 +15°C° 0 mm 8 mps 754 mmHg 58%
    11:00 +16°C° 0 mm 8 mps 755 mmHg 51%
    12:00 +17°C° 0 mm 9 mps 756 mmHg 44%
    13:00 +17°C° 0 mm 9 mps 756 mmHg 45%
    14:00 +17°C° 0 mm 9 mps 756 mmHg 45%
    15:00 +17°C° 0 mm 9 mps 757 mmHg 45%
    16:00 +16°C° 0 mm 8 mps 757 mmHg 49%
    17:00 +15°C° 0 mm 7 mps 757 mmHg 53%
    18:00 +14°C° 0 mm 6 mps 758 mmHg 58%
    19:00 +13°C° 0 mm 6 mps 759 mmHg 60%
    20:00 +13°C° 0 mm 6 mps 759 mmHg 62%
    21:00 +13°C° 0 mm 6 mps 760 mmHg 63%
    22:00 +13°C° 0 mm 5 mps 760 mmHg 64%
    23:00 +13°C° 0 mm 5 mps 760 mmHg 64%

    Day after tomorrow, 22 September, Saturday

    Time Temperature Precipitation Wind Pressure Humidity
    00:00 +12°C° 0 mm 5 mps 760 mmHg 65%
    01:00 +12°C° 0 mm 5 mps 760 mmHg 66%
    02:00 +12°C° 0 mm 4 mps 761 mmHg 67%
    03:00 +11°C° 0 mm 4 mps 761 mmHg 69%
    04:00 +11°C° 0 mm 4 mps 761 mmHg 71%
    05:00 +11°C° 0 mm 4 mps 761 mmHg 74%
    06:00 +10°C° 0 mm 4 mps 761 mmHg 76%
    07:00 +12°C° 0.1 mm 4 mps 762 mmHg 70%
    08:00 +13°C° 0.1 mm 5 mps 762 mmHg 64%
    09:00 +15°C° 0.1 mm 5 mps 762 mmHg 58%
    10:00 +16°C° 0.1 mm 5 mps 762 mmHg 55%
    11:00 +16°C° 0.1 mm 6 mps 762 mmHg 52%
    12:00 +17°C° 0.1 mm 6 mps 762 mmHg 49%
    13:00 +17°C° 0 mm 5 mps 762 mmHg 49%
    14:00 +17°C° 0 mm 5 mps 762 mmHg 50%
    15:00 +18°C° 0 mm 4 mps 762 mmHg 50%
    16:00 +17°C° 0 mm 4 mps 762 mmHg 53%
    17:00 +16°C° 0 mm 3 mps 762 mmHg 57%
    18:00 +15°C° 0 mm 2 mps 762 mmHg 60%
    19:00 +14°C° 0 mm 2 mps 762 mmHg 62%
    20:00 +14°C° 0 mm 2 mps 762 mmHg 64%
    21:00 +13°C° 0 mm 2 mps 762 mmHg 66%
    22:00 +13°C° 0.3 mm 2 mps 761 mmHg 71%
    23:00 +13°C° 0.3 mm 2 mps 761 mmHg 76%

    23 September, Sunday

    Time Temperature Precipitation Wind Pressure Humidity
    00:00 +13°C° 0.3 mm 2 mps 760 mmHg 81%
    01:00 +11°C° 1.1 mm 3 mps 759 mmHg 84%
    02:00 +11°C° 1.1 mm 3 mps 758 mmHg 87%
    03:00 +11°C° 1.1 mm 4 mps 757 mmHg 90%
    04:00 +11°C° 0.6 mm 4 mps 756 mmHg 89%
    05:00 +12°C° 0.6 mm 5 mps 755 mmHg 88%
    06:00 +11°C° 0.6 mm 6 mps 753 mmHg 88%
    07:00 +14°C° 1.1 mm 6 mps 752 mmHg 89%
    08:00 +16°C° 1.1 mm 7 mps 751 mmHg 90%
    09:00 +18°C° 1.1 mm 8 mps 749 mmHg 92%
    10:00 +19°C° 0.8 mm 9 mps 749 mmHg 90%
    11:00 +19°C° 0.8 mm 9 mps 748 mmHg 88%
    12:00 +21°C° 0.8 mm 10 mps 747 mmHg 86%
    13:00 +21°C° 0.6 mm 11 mps 745 mmHg 84%
    14:00 +21°C° 0.6 mm 12 mps 743 mmHg 81%
    15:00 +20°C° 0.6 mm 13 mps 741 mmHg 79%
    16:00 +18°C° 0.4 mm 13 mps 740 mmHg 76%
    17:00 +15°C° 0.4 mm 13 mps 739 mmHg 74%
    18:00 +13°C° 0.4 mm 13 mps 739 mmHg 71%
    19:00 +13°C° 0.3 mm 14 mps 741 mmHg 73%
    20:00 +13°C° 0.3 mm 15 mps 743 mmHg 75%
    21:00 +13°C° 0.3 mm 17 mps 745 mmHg 77%
    22:00 +13°C° 0.4 mm 15 mps 748 mmHg 75%
    23:00 +12°C° 0.4 mm 13 mps 752 mmHg 73%

    24 September, Monday

    Time Temperature Precipitation Wind Pressure Humidity
    00:00 +11°C° 0.4 mm 11 mps 756 mmHg 72%
    01:00 +11°C° 0.1 mm 9 mps 758 mmHg 72%
    02:00 +10°C° 0.1 mm 8 mps 760 mmHg 71%
    03:00 +10°C° 0.1 mm 7 mps 762 mmHg 71%
    04:00 +10°C° 0.1 mm 7 mps 763 mmHg 72%
    05:00 +10°C° 0.1 mm 6 mps 764 mmHg 73%
    06:00 +9°C° 0.1 mm 6 mps 765 mmHg 74%
    07:00 +10°C° 0.1 mm 6 mps 766 mmHg 70%
    08:00 +11°C° 0.1 mm 7 mps 767 mmHg 67%
    09:00 +12°C° 0.1 mm 7 mps 768 mmHg 63%
    10:00 +12°C° 0.2 mm 7 mps 768 mmHg 63%
    11:00 +12°C° 0.2 mm 8 mps 769 mmHg 62%
    12:00 +13°C° 0.2 mm 8 mps 769 mmHg 61%
    13:00 +12°C° 0.2 mm 8 mps 769 mmHg 60%
    14:00 +12°C° 0.2 mm 7 mps 770 mmHg 59%
    15:00 +12°C° 0.2 mm 7 mps 770 mmHg 59%
    16:00 +11°C° 0 mm 6 mps 770 mmHg 62%
    17:00 +10°C° 0 mm 5 mps 771 mmHg 65%
    18:00 +10°C° 0 mm 3 mps 771 mmHg 69%
    19:00 +10°C° 0 mm 3 mps 771 mmHg 71%
    20:00 +9°C° 0 mm 3 mps 772 mmHg 73%
    21:00 +9°C° 0 mm 2 mps 772 mmHg 75%
    22:00 +9°C° 0 mm 2 mps 772 mmHg 75%
    23:00 +9°C° 0 mm 2 mps 772 mmHg 76%

    25 September, Tuesday

    Time Temperature Precipitation Wind Pressure Humidity
    00:00 +8°C° 0 mm 2 mps 772 mmHg 77%
    01:00 +8°C° 0 mm 3 mps 772 mmHg 78%
    02:00 +8°C° 0 mm 3 mps 773 mmHg 79%
    03:00 +8°C° 0 mm 3 mps 773 mmHg 79%
    04:00 +8°C° 0 mm 3 mps 773 mmHg 81%
    05:00 +8°C° 0 mm 2 mps 773 mmHg 82%
    06:00 +8°C° 0 mm 2 mps 773 mmHg 84%
    07:00 +10°C° 0 mm 2 mps 773 mmHg 78%
    08:00 +13°C° 0 mm 2 mps 773 mmHg 72%
    09:00 +15°C° 0 mm 2 mps 773 mmHg 67%
    10:00 +16°C° 0 mm 2 mps 773 mmHg 63%
    11:00 +17°C° 0 mm 2 mps 773 mmHg 59%
    12:00 +18°C° 0 mm 2 mps 773 mmHg 55%
    13:00 +18°C° 0 mm 2 mps 772 mmHg 55%
    14:00 +18°C° 0 mm 2 mps 772 mmHg 54%
    15:00 +19°C° 0 mm 1 mps 772 mmHg 54%
    16:00 +16°C° 0 mm 1 mps 771 mmHg 60%
    17:00 +15°C° 0 mm 1 mps 771 mmHg 66%
    18:00 +13°C° 0 mm 1 mps 771 mmHg 73%
    19:00 +12°C° 0 mm 1 mps 771 mmHg 76%
    20:00 +12°C° 0 mm 1 mps 771 mmHg 79%
    21:00 +11°C° 0 mm 1 mps 771 mmHg 82%
    22:00 +10°C° 0 mm 2 mps 771 mmHg 84%
    23:00 +9°C° 0 mm 2 mps 771 mmHg 85%
    Show more